Weather History for Monroe, NC

Change the Weather History Date:

Friday, June 13, 2014

  Actual Average (KCLT) Record (KCLT)
Temperature  
Mean Temperature 76 °F 75 °F  
Max Temperature 86 °F 86 °F 97 °F (1958)
Min Temperature 68 °F 64 °F 49 °F (1903)
Degree Days  
Heating Degree Days 0 0  
Month to date heating degree days 0  
Since 1 June heating degree days 0  
Since 1 July heating degree days 3385  
Cooling Degree Days 11 10  
Month to date cooling degree days 112  
Year to date cooling degree days 275  
Since 1 June cooling degree days 112  
Growing Degree Days 26 (Base 50)    
Moisture  
Dew Point 66 °F    
Average Humidity 82    
Maximum Humidity 96    
Minimum Humidity 53    
Precipitation  
Precipitation 0.04 in 0.13 in 3.77 in (1949)
Month to date precipitation 1.70  
Year to date precipitation 18.66  
Snow  
Snow 0.00 in 0.00 in 0.00 in ()
Month to date snowfall 0.0  
Since 1 June snowfall 0.0  
Since 1 July snowfall 4.3  
Snow Depth -    
Sea Level Pressure  
Sea Level Pressure 29.87 in    
Wind  
Wind Speed 5 mph (WSW)    
Max Wind Speed 14 mph    
Max Gust Speed 22 mph    
Visibility 7 miles    
Events Fog , Rain , Thunderstorm    
T = Trace of Precipitation, MM = Missing Value Source: NWS Daily Summary

Daily Weather History Graph

Daily Weather History Graph

Search for Another Location

Airport:

Trip Planner

Search our weather history database for the weather conditions in past years. The results will help you decide how hot, cold, wet, or windy it might be!

Date:

Astronomy

Jun. 13, 2014 Rise Set
Actual Time 6:07 AM EDT 8:37 PM EDT
Civil Twilight 5:38 AM EDT 9:07 PM EDT
Nautical Twilight 5:01 AM EDT 9:43 PM EDT
Astronomical Twilight 4:21 AM EDT 10:24 PM EDT
Moon 9:09 PM EDT (6/13) 6:42 AM EDT (6/13)
Length of Visible Light 15h 28m
Length of Day
14h 29m
Full, 100% of the Moon is Illuminated
Jun 13
Full
Jun 19
Last Quarter
Jun 27
New
Jul 5
First Quarter
Jul 12
Full

Hourly Weather History & Observations

Time (EDT) Temp. Heat Index Dew Point Humidity Pressure Visibility Wind Dir Wind Speed Gust Speed Precip Events Conditions
12:53 AM 68.0 °F - 66.0 °F 93% 29.86 in 9.0 mi South 3.5 mph - N/A   Clear
1:53 AM 68.0 °F - 64.9 °F 90% 29.86 in 9.0 mi Calm Calm - N/A   Partly Cloudy
2:53 AM 68.0 °F - 64.9 °F 90% 29.84 in 9.0 mi SSW 4.6 mph - N/A   Partly Cloudy
3:53 AM 68.0 °F - 66.0 °F 93% 29.84 in 7.0 mi SW 5.8 mph - N/A   Mostly Cloudy
4:01 AM 68.0 °F - 66.0 °F 93% 29.84 in 5.0 mi SW 4.6 mph - N/A   Mostly Cloudy
4:13 AM 68.0 °F - 66.0 °F 93% 29.84 in 1.8 mi SW 4.6 mph - N/A   Overcast
4:21 AM 68.0 °F - 66.0 °F 93% 29.84 in 1.0 mi SW 4.6 mph - N/A   Overcast
4:50 AM 68.0 °F - 66.2 °F 94% 29.85 in 0.5 mi SSW 5.8 mph - N/A Fog Fog
4:51 AM 68.0 °F - 66.0 °F 93% 29.84 in 0.5 mi SSW 6.9 mph - N/A Fog Fog
5:43 AM 68.0 °F - 66.9 °F 96% 29.85 in 0.8 mi SW 5.8 mph - N/A   Mist
5:53 AM 68.0 °F - 66.0 °F 93% 29.86 in 0.5 mi SW 10.4 mph - N/A Fog Fog
6:53 AM 68.0 °F - 66.9 °F 96% 29.88 in 0.2 mi West 6.9 mph - N/A Fog Fog
7:15 AM 68.0 °F - 66.9 °F 96% 29.88 in 1.0 mi West 5.8 mph - N/A   Overcast
7:24 AM 68.0 °F - 66.9 °F 96% 29.88 in 3.0 mi West 5.8 mph - N/A   Overcast
7:44 AM 68.0 °F - 66.9 °F 96% 29.88 in 6.0 mi West 4.6 mph - N/A   Overcast
7:53 AM 68.0 °F - 66.9 °F 96% 29.88 in 7.0 mi West 4.6 mph - N/A   Mostly Cloudy
8:15 AM 69.1 °F - 66.0 °F 90% 29.89 in 8.0 mi West 5.8 mph - N/A   Scattered Clouds
8:53 AM 72.0 °F - 66.0 °F 81% 29.89 in 10.0 mi WSW 5.8 mph - N/A   Partly Cloudy
9:53 AM 75.0 °F - 66.9 °F 76% 29.89 in 10.0 mi Calm Calm - N/A   Scattered Clouds
10:26 AM 77.0 °F - 66.9 °F 71% 29.90 in 10.0 mi WSW 6.9 mph - N/A   Mostly Cloudy
10:34 AM 77.0 °F - 66.9 °F 71% 29.90 in 10.0 mi WNW 3.5 mph - N/A   Scattered Clouds
11:53 AM 81.0 °F 82.5 °F 64.0 °F 56% 29.88 in 10.0 mi Variable 5.8 mph - N/A   Clear
1:53 PM 82.9 °F 84.6 °F 64.9 °F 54% 29.86 in 10.0 mi SW 5.8 mph - N/A   Scattered Clouds
2:53 PM 84.9 °F 87.1 °F 66.0 °F 53% 29.85 in 10.0 mi SW 8.1 mph - N/A   Scattered Clouds
3:53 PM 84.9 °F 87.1 °F 66.0 °F 53% 29.82 in 10.0 mi WSW 11.5 mph - N/A   Partly Cloudy
7:53 PM 79.0 °F - 69.1 °F 72% 29.85 in 10.0 mi SSW 3.5 mph - N/A   Clear
8:53 PM 79.0 °F - 64.0 °F 60% 29.87 in 10.0 mi West 13.8 mph 21.9 mph N/A Thunderstorm Overcast
9:15 PM 73.0 °F - 64.9 °F 76% 29.88 in 10.0 mi NW 5.8 mph - 0.03 in Rain Light Rain
9:28 PM 73.0 °F - 64.0 °F 73% 29.88 in 10.0 mi Calm Calm - 0.04 in Thunderstorm Mostly Cloudy
9:43 PM 69.1 °F - 66.0 °F 90% 29.88 in 10.0 mi Calm Calm - 0.04 in   Scattered Clouds
9:53 PM 69.1 °F - 66.0 °F 90% 29.88 in 10.0 mi WSW 4.6 mph - 0.04 in   Partly Cloudy
10:53 PM 71.1 °F - 63.0 °F 75% 29.90 in 10.0 mi West 3.5 mph - N/A   Clear
11:53 PM 71.1 °F - 63.0 °F 75% 29.90 in 10.0 mi WSW 4.6 mph - N/A   Clear